Time,TemperatureF,DewpointF,PressureIn,WindDirection,WindDirectionDegrees,WindSpeedMPH,WindSpeedGustMPH,Humidity,HourlyPrecipIn,Conditions,Clouds,dailyrainin,SoftwareType,DateUTC
2013-09-13 00:03:00,75.8,67.3,30.00,NE,47,2.0,2.0,75,0.00,,,0.00,Wunderground v.1.15,2013-09-13 05:03:00,
2013-09-13 00:09:00,75.8,67.3,30.00,ENE,70,2.0,3.0,75,0.00,,,0.00,Wunderground v.1.15,2013-09-13 05:09:00,
2013-09-13 00:15:00,75.6,67.5,30.00,ENE,70,2.0,2.0,76,0.00,,,0.00,Wunderground v.1.15,2013-09-13 05:15:00,
2013-09-13 00:21:00,75.4,67.3,30.00,ENE,61,1.0,2.0,76,0.00,,,0.00,Wunderground v.1.15,2013-09-13 05:21:00,
2013-09-13 00:27:00,75.2,67.1,30.00,East,89,1.0,2.0,76,0.00,,,0.00,Wunderground v.1.15,2013-09-13 05:27:00,
2013-09-13 00:32:00,75.1,66.6,30.00,NE,39,2.0,5.0,75,0.00,,,0.00,Wunderground v.1.15,2013-09-13 05:32:00,
2013-09-13 00:38:00,75.0,66.9,30.00,NE,54,1.0,5.0,76,0.00,,,0.00,Wunderground v.1.15,2013-09-13 05:38:00,
2013-09-13 00:44:00,74.9,67.2,30.00,ENE,73,1.0,5.0,77,0.00,,,0.00,Wunderground v.1.15,2013-09-13 05:44:00,
2013-09-13 00:50:00,74.6,66.9,30.00,ENE,72,1.0,5.0,77,0.00,,,0.00,Wunderground v.1.15,2013-09-13 05:50:00,
2013-09-13 00:55:00,74.4,67.1,29.99,ENE,64,1.0,5.0,78,0.00,,,0.00,Wunderground v.1.15,2013-09-13 05:55:00,
2013-09-13 01:00:00,74.2,67.3,29.99,ENE,64,1.0,1.0,79,0.00,,,0.00,Wunderground v.1.15,2013-09-13 06:00:00,
2013-09-13 01:06:00,73.8,66.9,29.99,ENE,64,0.0,1.0,79,0.00,,,0.00,Wunderground v.1.15,2013-09-13 06:06:00,
2013-09-13 01:12:00,73.4,66.9,29.99,ENE,64,0.0,0.0,80,0.00,,,0.00,Wunderground v.1.15,2013-09-13 06:12:00,
2013-09-13 01:17:00,73.1,66.6,29.99,ENE,59,0.0,1.0,80,0.00,,,0.00,Wunderground v.1.15,2013-09-13 06:17:00,
2013-09-13 01:23:00,73.2,67.0,30.00,ENE,63,0.0,1.0,81,0.00,,,0.00,Wunderground v.1.15,2013-09-13 06:23:00,
2013-09-13 01:29:00,72.9,66.7,30.00,ESE,108,0.0,1.0,81,0.00,,,0.00,Wunderground v.1.15,2013-09-13 06:29:00,
2013-09-13 01:34:00,72.7,66.9,30.00,ESE,107,0.0,4.0,82,0.00,,,0.00,Wunderground v.1.15,2013-09-13 06:34:00,
2013-09-13 01:40:00,72.6,66.8,30.00,East,88,0.0,4.0,82,0.00,,,0.00,Wunderground v.1.15,2013-09-13 06:40:00,
2013-09-13 01:46:00,72.7,66.9,30.00,NNE,20,1.0,4.0,82,0.00,,,0.00,Wunderground v.1.15,2013-09-13 06:46:00,
2013-09-13 01:52:00,72.7,66.9,30.00,ENE,65,1.0,4.0,82,0.00,,,0.00,Wunderground v.1.15,2013-09-13 06:52:00,
2013-09-13 01:57:00,72.6,66.8,30.00,ENE,66,0.0,4.0,82,0.00,,,0.00,Wunderground v.1.15,2013-09-13 06:57:00,
2013-09-13 02:03:00,72.6,66.4,30.00,NE,56,1.0,1.0,81,0.00,,,0.00,Wunderground v.1.15,2013-09-13 07:03:00,
2013-09-13 02:09:00,72.6,66.4,30.00,ENE,63,1.0,2.0,81,0.00,,,0.00,Wunderground v.1.15,2013-09-13 07:09:00,
2013-09-13 02:15:00,72.8,66.3,30.00,ENE,60,2.0,5.0,80,0.00,,,0.00,Wunderground v.1.15,2013-09-13 07:15:00,
2013-09-13 02:20:00,72.7,66.2,30.00,NE,53,2.0,2.0,80,0.00,,,0.00,Wunderground v.1.15,2013-09-13 07:20:00,
2013-09-13 02:26:00,72.6,66.1,30.00,ENE,68,2.0,4.0,80,0.00,,,0.00,Wunderground v.1.15,2013-09-13 07:26:00,
2013-09-13 02:32:00,72.6,65.7,30.00,ENE,58,2.0,4.0,79,0.00,,,0.00,Wunderground v.1.15,2013-09-13 07:32:00,
2013-09-13 02:38:00,72.5,65.2,30.00,ENE,68,2.0,4.0,78,0.00,,,0.00,Wunderground v.1.15,2013-09-13 07:38:00,
2013-09-13 02:44:00,72.4,65.2,30.00,NE,49,3.0,4.0,78,0.00,,,0.00,Wunderground v.1.15,2013-09-13 07:44:00,
2013-09-13 02:50:00,72.3,65.1,30.00,ENE,58,3.0,3.0,78,0.00,,,0.00,Wunderground v.1.15,2013-09-13 07:50:00,
2013-09-13 02:56:00,72.2,65.0,30.00,East,92,3.0,4.0,78,0.00,,,0.00,Wunderground v.1.15,2013-09-13 07:56:00,
2013-09-13 03:01:00,72.1,64.9,30.00,NNE,20,2.0,3.0,78,0.00,,,0.00,Wunderground v.1.15,2013-09-13 08:01:00,
2013-09-13 03:07:00,72.0,64.8,30.00,ENE,64,2.0,3.0,78,0.00,,,0.00,Wunderground v.1.15,2013-09-13 08:07:00,
2013-09-13 03:13:00,71.9,64.7,30.00,NE,42,2.0,2.0,78,0.00,,,0.00,Wunderground v.1.15,2013-09-13 08:13:00,
2013-09-13 03:19:00,71.8,64.2,30.00,East,79,2.0,3.0,77,0.00,,,0.00,Wunderground v.1.15,2013-09-13 08:19:00,
2013-09-13 03:25:00,71.5,63.9,30.00,SE,134,2.0,3.0,77,0.00,,,0.00,Wunderground v.1.15,2013-09-13 08:25:00,
2013-09-13 03:31:00,71.3,64.1,30.00,East,84,1.0,1.0,78,0.00,,,0.00,Wunderground v.1.15,2013-09-13 08:31:00,
2013-09-13 03:37:00,71.1,63.5,30.00,East,84,1.0,3.0,77,0.00,,,0.00,Wunderground v.1.15,2013-09-13 08:37:00,
2013-09-13 03:43:00,70.9,63.7,30.00,East,82,1.0,1.0,78,0.00,,,0.00,Wunderground v.1.15,2013-09-13 08:43:00,
2013-09-13 03:48:00,70.8,63.2,30.00,ENE,58,1.0,2.0,77,0.00,,,0.00,Wunderground v.1.15,2013-09-13 08:48:00,
2013-09-13 03:54:00,70.7,63.1,30.01,ENE,58,1.0,2.0,77,0.00,,,0.00,Wunderground v.1.15,2013-09-13 08:54:00,
2013-09-13 04:00:00,70.6,62.7,30.01,ESE,117,1.0,1.0,76,0.00,,,0.00,Wunderground v.1.15,2013-09-13 09:00:00,
2013-09-13 04:06:00,70.5,62.6,30.01,ENE,65,1.0,2.0,76,0.00,,,0.00,Wunderground v.1.15,2013-09-13 09:06:00,
2013-09-13 04:11:00,70.2,61.9,30.01,ENE,60,1.0,1.0,75,0.00,,,0.00,Wunderground v.1.15,2013-09-13 09:11:00,
2013-09-13 04:17:00,70.1,61.8,30.01,NE,56,1.0,2.0,75,0.00,,,0.00,Wunderground v.1.15,2013-09-13 09:17:00,
2013-09-13 04:23:00,70.0,61.7,30.01,East,101,1.0,1.0,75,0.00,,,0.00,Wunderground v.1.15,2013-09-13 09:23:00,
2013-09-13 04:29:00,69.7,61.0,30.01,East,96,1.0,2.0,74,0.00,,,0.00,Wunderground v.1.15,2013-09-13 09:29:00,
2013-09-13 04:35:00,69.7,61.4,30.01,NE,41,2.0,4.0,75,0.00,,,0.00,Wunderground v.1.15,2013-09-13 09:35:00,
2013-09-13 04:41:00,69.6,61.3,30.01,East,89,1.0,4.0,75,0.00,,,0.00,Wunderground v.1.15,2013-09-13 09:41:00,
2013-09-13 04:47:00,69.5,61.6,30.01,East,82,1.0,4.0,76,0.00,,,0.00,Wunderground v.1.15,2013-09-13 09:47:00,
2013-09-13 04:53:00,69.4,61.1,30.01,ENE,58,1.0,4.0,75,0.00,,,0.00,Wunderground v.1.15,2013-09-13 09:53:00,
2013-09-13 04:58:00,69.5,61.6,30.01,NE,56,2.0,4.0,76,0.00,,,0.00,Wunderground v.1.15,2013-09-13 09:58:00,
2013-09-13 05:04:00,69.3,60.7,30.01,NE,54,1.0,2.0,74,0.00,,,0.00,Wunderground v.1.15,2013-09-13 10:04:00,
2013-09-13 05:09:00,69.2,59.8,30.01,ENE,77,1.0,4.0,72,0.00,,,0.00,Wunderground v.1.15,2013-09-13 10:09:00,
2013-09-13 05:15:00,69.4,59.6,30.01,ENE,76,2.0,4.0,71,0.00,,,0.00,Wunderground v.1.15,2013-09-13 10:15:00,
2013-09-13 05:20:00,69.5,58.1,30.02,SE,136,2.0,2.0,67,0.00,,,0.00,Wunderground v.1.15,2013-09-13 10:20:00,
2013-09-13 05:26:00,69.6,56.9,30.02,ENE,68,2.0,5.0,64,0.00,,,0.00,Wunderground v.1.15,2013-09-13 10:26:00,
2013-09-13 05:32:00,69.7,56.1,30.02,ENE,58,3.0,7.0,62,0.00,,,0.00,Wunderground v.1.15,2013-09-13 10:32:00,
2013-09-13 05:38:00,69.6,55.6,30.02,ENE,78,3.0,7.0,61,0.00,,,0.00,Wunderground v.1.15,2013-09-13 10:38:00,
2013-09-13 05:44:00,69.5,56.3,30.02,NE,49,3.0,7.0,63,0.00,,,0.00,Wunderground v.1.15,2013-09-13 10:44:00,
2013-09-13 05:50:00,69.3,56.2,30.02,East,98,2.0,7.0,63,0.00,,,0.00,Wunderground v.1.15,2013-09-13 10:50:00,
2013-09-13 05:56:00,69.1,55.5,30.02,East,85,2.0,7.0,62,0.00,,,0.00,Wunderground v.1.15,2013-09-13 10:56:00,
2013-09-13 06:01:00,69.0,55.0,30.02,East,82,2.0,2.0,61,0.00,,,0.00,Wunderground v.1.15,2013-09-13 11:01:00,
2013-09-13 06:07:00,68.8,55.2,30.02,East,79,2.0,4.0,62,0.00,,,0.00,Wunderground v.1.15,2013-09-13 11:07:00,
2013-09-13 06:13:00,68.7,55.2,30.03,East,101,2.0,2.0,62,0.00,,,0.00,Wunderground v.1.15,2013-09-13 11:13:00,
2013-09-13 06:19:00,68.5,56.3,30.03,East,79,2.0,2.0,65,0.00,,,0.00,Wunderground v.1.15,2013-09-13 11:19:00,
2013-09-13 06:24:00,68.1,57.1,30.03,ESE,107,1.0,4.0,68,0.00,,,0.00,Wunderground v.1.15,2013-09-13 11:24:00,
2013-09-13 06:30:00,67.7,58.0,30.03,ESE,113,1.0,2.0,71,0.00,,,0.00,Wunderground v.1.15,2013-09-13 11:30:00,
2013-09-13 06:36:00,67.2,57.9,30.03,ESE,110,1.0,2.0,72,0.00,,,0.00,Wunderground v.1.15,2013-09-13 11:36:00,
2013-09-13 06:42:00,66.6,58.1,30.03,NNE,20,1.0,1.0,74,0.00,,,0.00,Wunderground v.1.15,2013-09-13 11:42:00,
2013-09-13 06:48:00,66.1,57.6,30.03,NE,38,0.0,1.0,74,0.00,,,0.00,Wunderground v.1.15,2013-09-13 11:48:00,
2013-09-13 06:54:00,65.8,57.7,30.03,ENE,58,0.0,0.0,75,0.00,,,0.00,Wunderground v.1.15,2013-09-13 11:54:00,
2013-09-13 07:00:00,65.6,57.5,30.03,ENE,58,0.0,0.0,75,0.00,,,0.00,Wunderground v.1.15,2013-09-13 12:00:00,
2013-09-13 07:06:00,65.4,57.3,30.04,East,101,0.0,1.0,75,0.00,,,0.00,Wunderground v.1.15,2013-09-13 12:06:00,
2013-09-13 07:11:00,65.3,57.2,30.04,ESE,121,0.0,1.0,75,0.00,,,0.00,Wunderground v.1.15,2013-09-13 12:11:00,
2013-09-13 07:17:00,65.3,57.2,30.04,East,97,0.0,1.0,75,0.00,,,0.00,Wunderground v.1.15,2013-09-13 12:17:00,
2013-09-13 07:23:00,65.2,57.1,30.04,NE,34,0.0,0.0,75,0.00,,,0.00,Wunderground v.1.15,2013-09-13 12:23:00,
2013-09-13 07:29:00,65.1,57.3,30.04,NE,37,0.0,0.0,76,0.00,,,0.00,Wunderground v.1.15,2013-09-13 12:29:00,
2013-09-13 07:35:00,64.9,56.8,30.04,East,87,0.0,5.0,75,0.00,,,0.00,Wunderground v.1.15,2013-09-13 12:35:00,
2013-09-13 07:41:00,65.2,57.1,30.04,NE,46,1.0,5.0,75,0.00,,,0.00,Wunderground v.1.15,2013-09-13 12:41:00,
2013-09-13 07:47:00,65.2,56.3,30.04,ENE,66,1.0,5.0,73,0.00,,,0.00,Wunderground v.1.15,2013-09-13 12:47:00,
2013-09-13 07:52:00,65.2,56.3,30.04,NE,49,1.0,5.0,73,0.00,,,0.00,Wunderground v.1.15,2013-09-13 12:52:00,
2013-09-13 07:58:00,65.1,56.2,30.05,East,81,1.0,5.0,73,0.00,,,0.00,Wunderground v.1.15,2013-09-13 12:58:00,
2013-09-13 08:04:00,65.3,56.4,30.05,East,100,1.0,2.0,73,0.00,,,0.00,Wunderground v.1.15,2013-09-13 13:04:00,
2013-09-13 08:10:00,66.2,55.7,30.05,ENE,65,1.0,2.0,69,0.00,,,0.00,Wunderground v.1.15,2013-09-13 13:10:00,
2013-09-13 08:15:00,66.8,55.9,30.05,North,11,2.0,4.0,68,0.00,,,0.00,Wunderground v.1.15,2013-09-13 13:15:00,
2013-09-13 08:21:00,67.5,56.2,30.05,NNE,25,2.0,3.0,67,0.00,,,0.00,Wunderground v.1.15,2013-09-13 13:21:00,
2013-09-13 08:27:00,68.0,56.6,30.05,ESE,118,2.0,3.0,67,0.00,,,0.00,Wunderground v.1.15,2013-09-13 13:27:00,
2013-09-13 08:34:00,68.7,56.5,30.05,ENE,77,2.0,3.0,65,0.00,,,0.00,Wunderground v.1.15,2013-09-13 13:34:00,
2013-09-13 08:40:00,68.9,56.6,30.05,NE,55,2.0,2.0,65,0.00,,,0.00,Wunderground v.1.15,2013-09-13 13:40:00,
2013-09-13 08:45:00,69.1,56.0,30.05,NE,43,2.0,2.0,63,0.00,,,0.00,Wunderground v.1.15,2013-09-13 13:45:00,
2013-09-13 08:51:00,69.1,56.4,30.05,NE,36,3.0,3.0,64,0.00,,,0.00,Wunderground v.1.15,2013-09-13 13:51:00,